[[{"header":{"parameterUnit":"m.s-1","parameterCategory":1,"la1":30.2991,"la2":30.254,"lo1":-89.0895,"lo2":-89.0444,"dy":0.0017,"dx":0.0017,"nx":28,"ny":28,"refTime":"2024-05-12T03:00:00:Z","depth":0,"parameterNumber":2,"parameterNumberName":"U-component_of_WINDS"},"data":[0,0,0,0,0,0,0,0,0,0,0,0,0,0,0,0,0,0,0,0,0,0,0,0,0,0,0,0,0,0,0,0,0,0,0,0,0,0,0,0,0,0,0,0,0,0,0,0,0,0,0,0,0,0,0,0,0,0,-3.5039,-3.5039,0,-3.5038,-3.5038,-3.5038,-3.4903,-3.49,-3.4896,-3.4893,-3.4892,-3.4896,-3.4899,0,0,0,0,0,0,0,0,0,0,0,0,0,-3.4926,-3.4929,-3.5039,-3.5039,-3.5039,-3.5038,-3.5038,-3.5038,-3.4904,-3.4899,-3.4895,-3.4891,-3.4891,-3.4895,-3.4899,0,0,0,0,0,0,0,0,0,0,0,0,0,-3.4955,-3.493,-3.5039,-3.4972,-3.4966,-3.5038,-3.5038,-3.5038,-3.4905,-3.4899,-3.4894,-3.4889,-3.489,-3.4895,-3.49,-3.5036,0,0,-3.4915,-3.4917,0,0,0,0,0,0,0,0,-3.4954,-3.496,-3.4982,-3.4977,-3.497,-3.4965,-3.4998,-3.5037,-3.4906,-3.4928,-3.4893,-3.4886,-3.4921,-3.4923,-3.4934,-3.5036,-3.5036,-3.4915,-3.4918,-3.492,-3.4922,0,0,0,0,0,0,0,-3.4952,-3.4959,-3.5039,-3.4983,-3.4975,-3.4942,-3.494,-3.5005,-3.4954,-3.4926,-3.4916,-3.4918,-3.4917,-3.493,-3.4933,-3.5036,-3.4915,-3.4919,-3.4922,-3.4924,-3.5247,-3.5253,0,0,0,0,0,0,-3.4959,-3.4958,-3.5039,-3.5039,-3.4949,-3.4949,-3.4947,-3.4972,-3.4953,-3.4945,-3.4922,-3.4911,-3.4924,-3.4928,-3.4933,-3.509,-3.492,-3.4925,-3.4928,-3.5242,-3.5249,-3.5255,0,0,0,0,0,0,-3.4957,-3.4968,-3.5039,-3.4996,-3.5002,-3.4956,-3.4986,-3.4975,-3.4988,-3.495,-3.4941,-3.4945,-3.492,-3.4926,-3.5011,-3.5088,-3.4927,-3.4932,-3.5235,-3.5244,-3.5252,-3.5405,0,0,0,0,0,0,-3.4955,-3.4968,-3.5019,-3.4998,-3.5005,-3.5117,-3.4991,-3.4979,-3.4997,-3.4983,-3.4969,-3.4962,-3.4916,-3.5004,-3.5016,-3.5092,-3.4935,-3.5228,-3.5239,-3.5249,-3.5393,-3.5418,-3.5439,0,0,0,0,0,-3.4951,-3.5063,-3.5022,-3.5033,-3.5068,-3.5122,-3.5126,-3.5071,-3.5004,-3.5054,-3.503,-3.4962,-3.5078,-3.5014,-3.5026,-3.5105,-3.5223,-3.5236,-3.5248,-3.5383,-3.5413,-3.5439,0,0,0,0,0,0,-3.5095,-3.5059,-3.5014,-3.5122,-3.5126,-3.5099,-3.5162,-3.5105,-3.5129,-3.5115,-3.5046,-3.5044,-3.514,-3.513,-3.506,-3.5234,-3.5138,-3.5154,-3.5237,-3.5265,-3.5288,-3.5287,-3.494,0,0,0,0,0,-3.514,-3.5186,-3.5152,-3.5251,-3.5255,-3.5209,-3.523,-3.5187,-3.5189,-3.519,-3.5172,-3.5176,-3.5213,-3.5239,-3.5271,-3.5392,-3.5386,-3.5452,-3.5475,-3.5494,-3.5508,-3.5569,-3.5598,-3.5296,-3.5296,-3.5296,0,0,-3.5232,-3.5218,-3.5252,-3.528,-3.5278,-3.5327,-3.5211,-3.5269,-3.5304,-3.5199,-3.5277,-3.5264,-3.5264,-3.5368,-3.5412,-3.5363,-3.559,-3.551,-3.5525,-3.5529,-3.5585,-3.5614,-3.5639,-3.5305,-3.5303,-3.5302,0,0,-3.5425,-3.542,-3.55,-3.5501,-3.5499,-3.5467,-3.5487,-3.5468,-3.5455,-3.5533,-3.5454,-3.5496,-3.5561,-3.5564,-3.5574,-3.5768,-3.5706,-3.578,-3.59,-3.5961,-3.5985,-3.6005,-3.6073,-3.6098,-3.5794,-3.5795,-3.5795,0,-3.554,-3.561,-3.5549,-3.5612,-3.5626,-3.5532,-3.5613,-3.5617,-3.5626,-3.5638,-3.5583,-3.5662,-3.5656,-3.5757,-3.5804,-3.5816,-3.5836,-3.5781,-3.5986,-3.6006,-3.6025,-3.6088,-3.6114,-3.5804,-3.5803,-3.5802,-3.5801,0,-3.5751,-3.5801,-3.5867,-3.5877,-3.5899,-3.5971,-3.592,-3.595,-3.5906,-3.588,-3.5959,-3.5948,-3.5976,-3.5997,-3.5955,-3.6093,-3.6062,-3.5998,-3.59,-3.6063,-3.6122,-3.6146,-3.5817,-3.5813,-3.5811,-3.5809,0,0,-3.6034,-3.6009,-3.6034,-3.6037,-3.6027,-3.6065,-3.6133,-3.6159,-3.6185,-3.6194,-3.6248,-3.6306,-3.6246,-3.6257,-3.6215,-3.6269,-3.6421,-3.6197,-3.6196,-3.6238,-3.657,-3.6617,-3.6647,-3.638,-3.6384,-3.6388,-3.657,0,-3.6219,-3.6332,-3.6278,-3.6397,-3.6442,-3.6353,-3.6412,-3.6413,-3.639,-3.6425,-3.64,-3.6441,-3.636,-3.6366,-3.6416,-3.6392,-3.6486,-3.6378,-3.6429,-3.6431,-3.643,-3.6677,-3.6728,-3.69,-3.6592,-3.6596,-3.6599,0,-3.645,-3.6468,-3.6591,-3.6572,-3.6589,-3.6643,-3.6661,-3.6696,-3.6695,-3.6675,-3.6688,-3.6632,-3.6697,-3.66,-3.6688,-3.6615,-3.6633,-3.6624,-3.663,-3.6631,-3.6524,-3.6684,-3.6953,-3.6979,-3.6635,-3.6632,-3.6629,0,-3.6642,-3.6698,-3.6777,-3.6783,-3.6763,-3.6803,-3.6797,-3.679,-3.6809,-3.6826,-3.6837,-3.6862,-3.6876,-3.6896,-3.6849,-3.6783,-3.6942,-3.6842,-3.6927,-3.6928,-3.6963,-3.6961,-3.7237,-3.6978,-3.6977,-3.6977,-3.6976,0,-3.6853,-3.6932,-3.6863,-3.6912,-3.6997,-3.6935,-3.7021,-3.7006,-3.7001,-3.7045,-3.6971,-3.7014,-3.695,-3.6987,-3.695,-3.7027,-3.7035,-3.702,-3.7009,-3.7025,-3.7027,-3.7035,-3.7021,-3.6984,-3.6982,-3.6981,-3.698,0,-3.7082,-3.7039,-3.712,-3.7095,-3.709,-3.7154,-3.7132,-3.7176,-3.7149,-3.7206,-3.7216,-3.7173,-3.7212,-3.7167,-3.7204,-3.7179,-3.7283,-3.7255,-3.7283,-3.7275,-3.7361,-3.7353,-3.765,-3.7686,-3.7406,-3.7408,-3.7411,0,-3.7218,-3.7276,-3.7257,-3.7281,-3.7279,-3.7319,-3.7337,-3.7279,-3.7301,-3.7304,-3.7348,-3.7381,-3.7404,-3.7472,-3.7444,-3.7472,-3.7443,-3.7545,-3.7446,-3.7461,-3.7442,-3.7439,-3.7443,-3.7565,-3.7568,-3.7571,-3.7573,0,-3.7465,-3.7441,-3.747,-3.7492,-3.7515,-3.753,-3.7539,-3.7563,-3.7502,-3.7531,-3.757,-3.7589,-3.7625,-3.7659,-3.7678,-3.7672,-3.7613,-3.7605,-3.7625,-3.7642,-3.7655,-3.7647,-3.7336,-3.7598,-3.7596,-3.7594,-3.7592,-3.7591,-3.765,-3.7697,-3.769,-3.7724,-3.7725,-3.7735,-3.7775,-3.7752,-3.7783,-3.7807,-3.7772,-3.782,-3.7817,-3.7837,-3.7837,-3.7874,-3.783,-3.7861,-3.7868,-3.7876,-3.7888,-3.7651,-3.7878,-3.7877,-3.7877,-3.7876,-3.7875,0,-3.7891,-3.7882,-3.7915,-3.7929,-3.7956,-3.7898,-3.7905,-3.7931,-3.7974,-3.7976,-3.8,-3.8045,-3.8077,-3.8052,-3.8079,-3.8113,-3.8087,-3.8122,-3.8118,-3.8117,-3.7927,-3.7905,-3.8143,-3.8143,-3.8143,-3.8143,-3.8143,-3.8143,-3.802,-3.8095,-3.807,-3.8144,-3.8135,-3.8181,-3.819,-3.8198,-3.8199,-3.8252,-3.8278,-3.8261,-3.8252,-3.8277,-3.8304,-3.8296,-3.8308,-3.8353,-3.8335,-3.8157,-3.8131,-3.8106,-3.8085,-3.8357,-3.8357,-3.8522,-3.8524,-3.8525]},{"header":{"parameterUnit":"m.s-1","parameterCategory":1,"la1":30.2991,"la2":30.254,"lo1":-89.0895,"lo2":-89.0444,"dy":0.0017,"dx":0.0017,"nx":28,"ny":28,"refTime":"2024-05-12T03:00:00:Z","depth":0,"parameterNumber":3,"parameterNumberName":"V-component_of_WINDS"},"data":[0,0,0,0,0,0,0,0,0,0,0,0,0,0,0,0,0,0,0,0,0,0,0,0,0,0,0,0,0,0,0,0,0,0,0,0,0,0,0,0,0,0,0,0,0,0,0,0,0,0,0,0,0,0,0,0,0,0,-2.4213,-2.4214,0,-2.4277,-2.4278,-2.4279,-2.4283,-2.4283,-2.4282,-2.4281,-2.4345,-2.4348,-2.435,0,0,0,0,0,0,0,0,0,0,0,0,0,-2.4091,-2.4093,-2.4213,-2.4214,-2.4215,-2.4277,-2.4278,-2.4279,-2.4283,-2.4283,-2.4282,-2.4281,-2.4344,-2.4347,-2.435,0,0,0,0,0,0,0,0,0,0,0,0,0,-2.4149,-2.4094,-2.4213,-2.4224,-2.4226,-2.4277,-2.4278,-2.4279,-2.4284,-2.4283,-2.4282,-2.4281,-2.4344,-2.4347,-2.435,-2.4393,0,0,-2.4361,-2.4363,0,0,0,0,0,0,0,0,-2.4145,-2.4153,-2.4222,-2.4224,-2.4226,-2.4271,-2.4258,-2.4317,-2.4284,-2.4262,-2.4281,-2.428,-2.4321,-2.4327,-2.4341,-2.4396,-2.4399,-2.4362,-2.4364,-2.4365,-2.4366,0,0,0,0,0,0,0,-2.4141,-2.415,-2.4238,-2.4223,-2.4225,-2.4225,-2.4232,-2.427,-2.4297,-2.4264,-2.4264,-2.4272,-2.4322,-2.4338,-2.4342,-2.44,-2.4361,-2.4365,-2.4367,-2.4368,-2.4492,-2.4493,0,0,0,0,0,0,-2.4135,-2.4147,-2.4236,-2.424,-2.4182,-2.4228,-2.4236,-2.4258,-2.4296,-2.4301,-2.4273,-2.4272,-2.4332,-2.4338,-2.4345,-2.4396,-2.4365,-2.4369,-2.4371,-2.449,-2.4492,-2.4493,0,0,0,0,0,0,-2.4133,-2.4143,-2.4234,-2.4194,-2.4205,-2.4232,-2.4256,-2.4259,-2.4275,-2.4303,-2.4308,-2.4284,-2.4331,-2.434,-2.4381,-2.4398,-2.437,-2.4373,-2.4489,-2.4491,-2.4492,-2.45,0,0,0,0,0,0,-2.4129,-2.4142,-2.416,-2.4194,-2.4207,-2.427,-2.4257,-2.4261,-2.4281,-2.4281,-2.4315,-2.4319,-2.4331,-2.4376,-2.4384,-2.4403,-2.4376,-2.4488,-2.449,-2.4492,-2.4498,-2.4501,-2.4504,0,0,0,0,0,-2.4125,-2.4159,-2.4161,-2.4171,-2.423,-2.4271,-2.4278,-2.4292,-2.4283,-2.43,-2.4317,-2.4318,-2.4395,-2.438,-2.439,-2.4409,-2.4487,-2.4489,-2.4492,-2.4497,-2.4501,-2.4504,0,0,0,0,0,0,-2.4126,-2.4164,-2.4166,-2.4213,-2.4238,-2.4271,-2.4293,-2.4296,-2.4325,-2.4323,-2.4338,-2.4346,-2.4386,-2.4402,-2.4384,-2.4452,-2.444,-2.4444,-2.444,-2.4444,-2.4447,-2.4442,-2.4379,0,0,0,0,0,-2.4132,-2.4163,-2.4194,-2.4232,-2.4245,-2.4267,-2.4285,-2.4294,-2.4321,-2.4331,-2.4352,-2.4378,-2.4407,-2.4427,-2.4456,-2.45,-2.4507,-2.4519,-2.4522,-2.4524,-2.4528,-2.4551,-2.4556,-2.4502,-2.4502,-2.4502,0,0,-2.4144,-2.4169,-2.4187,-2.4233,-2.4254,-2.4284,-2.4276,-2.4309,-2.4331,-2.4336,-2.4376,-2.4392,-2.4421,-2.4464,-2.4484,-2.4478,-2.4544,-2.4528,-2.4529,-2.4532,-2.4554,-2.4559,-2.4563,-2.4503,-2.4503,-2.4503,0,0,-2.4182,-2.4204,-2.4237,-2.4258,-2.429,-2.4304,-2.4312,-2.4344,-2.4355,-2.4396,-2.4399,-2.4425,-2.4477,-2.4497,-2.4514,-2.4557,-2.4558,-2.4566,-2.4583,-2.4605,-2.4609,-2.4613,-2.4627,-2.4631,-2.457,-2.457,-2.457,0,-2.4193,-2.4239,-2.4254,-2.4287,-2.4306,-2.4312,-2.4345,-2.4364,-2.4403,-2.4416,-2.4409,-2.4473,-2.4493,-2.454,-2.455,-2.4564,-2.4572,-2.4562,-2.4607,-2.4611,-2.4615,-2.4628,-2.4634,-2.4571,-2.4571,-2.4571,-2.4571,0,-2.425,-2.4283,-2.4305,-2.4343,-2.4365,-2.4398,-2.4416,-2.4436,-2.4442,-2.4456,-2.4496,-2.4521,-2.4554,-2.4566,-2.4572,-2.4612,-2.4608,-2.4604,-2.4592,-2.4621,-2.4633,-2.4639,-2.4572,-2.4571,-2.4571,-2.4571,0,0,-2.4291,-2.4335,-2.4343,-2.436,-2.4394,-2.4419,-2.4451,-2.4484,-2.45,-2.4527,-2.4553,-2.4595,-2.4592,-2.4611,-2.462,-2.4639,-2.4669,-2.4633,-2.4634,-2.4637,-2.4713,-2.4714,-2.472,-2.467,-2.4672,-2.4672,-2.471,0,-2.4331,-2.4389,-2.4402,-2.4451,-2.448,-2.4485,-2.4513,-2.4536,-2.455,-2.4576,-2.4591,-2.462,-2.4614,-2.4626,-2.4645,-2.4662,-2.4684,-2.4659,-2.4693,-2.4694,-2.4685,-2.4727,-2.4729,-2.4764,-2.4715,-2.4716,-2.4717,0,-2.4386,-2.4413,-2.4465,-2.4494,-2.4507,-2.4531,-2.4561,-2.4586,-2.4612,-2.4621,-2.4642,-2.4648,-2.468,-2.4667,-2.471,-2.4693,-2.4707,-2.4717,-2.4719,-2.4722,-2.4707,-2.473,-2.4775,-2.478,-2.4725,-2.4724,-2.4724,0,-2.4408,-2.4458,-2.4495,-2.4509,-2.4544,-2.4561,-2.4577,-2.4602,-2.462,-2.4646,-2.4658,-2.4687,-2.4703,-2.4725,-2.4738,-2.4728,-2.478,-2.4768,-2.4787,-2.4786,-2.4797,-2.4796,-2.4844,-2.4808,-2.4808,-2.4808,-2.4808,0,-2.4451,-2.4482,-2.4505,-2.4528,-2.4562,-2.4577,-2.461,-2.4625,-2.4647,-2.4672,-2.4678,-2.4701,-2.4718,-2.4743,-2.4754,-2.4787,-2.4794,-2.4801,-2.4803,-2.48,-2.4799,-2.4809,-2.4806,-2.481,-2.4809,-2.4809,-2.4809,0,-2.4481,-2.4498,-2.4539,-2.4568,-2.4577,-2.46,-2.4625,-2.4647,-2.4661,-2.4692,-2.47,-2.4721,-2.475,-2.4766,-2.4803,-2.481,-2.4847,-2.4848,-2.4838,-2.4838,-2.4855,-2.4853,-2.4911,-2.4918,-2.4879,-2.4879,-2.488,0,-2.4507,-2.453,-2.4563,-2.458,-2.4595,-2.4623,-2.4642,-2.4656,-2.4675,-2.4705,-2.4723,-2.4753,-2.4777,-2.4823,-2.4842,-2.4869,-2.4871,-2.4889,-2.4875,-2.487,-2.4869,-2.4867,-2.4869,-2.4891,-2.4892,-2.4892,-2.4892,0,-2.4549,-2.4556,-2.4583,-2.4612,-2.4634,-2.4658,-2.4681,-2.4694,-2.4713,-2.4733,-2.4763,-2.4782,-2.4819,-2.4848,-2.4877,-2.4892,-2.4894,-2.4896,-2.4902,-2.4898,-2.489,-2.4893,-2.4843,-2.4895,-2.4895,-2.4894,-2.4894,-2.4894,-2.4577,-2.4598,-2.4623,-2.4652,-2.4671,-2.4693,-2.4714,-2.473,-2.4755,-2.4787,-2.4794,-2.4825,-2.4849,-2.4888,-2.4903,-2.4927,-2.4923,-2.4932,-2.4933,-2.4935,-2.4935,-2.4887,-2.4933,-2.4933,-2.4933,-2.4932,-2.4932,0,-2.4619,-2.4635,-2.4662,-2.4694,-2.4716,-2.4717,-2.4743,-2.4761,-2.4789,-2.4811,-2.4835,-2.4868,-2.4896,-2.4916,-2.4944,-2.4959,-2.4961,-2.4965,-2.4964,-2.4967,-2.4937,-2.4929,-2.4963,-2.4963,-2.4963,-2.4963,-2.4963,-2.4963,-2.4643,-2.4678,-2.4688,-2.4731,-2.4747,-2.4778,-2.4792,-2.4811,-2.4829,-2.4866,-2.4889,-2.4902,-2.4923,-2.4952,-2.4977,-2.4982,-2.4991,-2.4996,-2.5001,-2.4973,-2.4969,-2.4966,-2.4958,-2.4998,-2.4998,-2.5028,-2.5028,-2.5028]}]]